Weather in Atyurjevo

Russia / Republic of Mordovia     54°19′14″N   43°20′28″E
temp.,
°C
wind,
m/s
gust,
m/s
humid.,
%
clouds,
%
prec.,
mm/h
press.,
hPa
HPBL,
m
4 march, thu
thu400:00−2w6129499 0.2 1009667
03:00−2wsw61293100 0.4 1007699
06:00−2wsw71293100 0.1 1004747
09:00−1wsw81497100 0.9 1001893
12:00+1wsw91589100 0.9 1000944
15:000w81494100 1.1 1000965
18:00−1wsw61197100 1.1 1000602
21:00−1wnw3697100 3.3 1000335
5 march, fri
fri500:00−4nnw1198100 1.1 100024
03:00−4nw2298100 2.1 100179
06:00−6n3497100 0.5 100294
09:00−7nnw3595100 0.7 1005204
12:00−4nw248551 0.0 1007576
15:00−3w358574 0.1 1009749
18:00−7wsw359285 0.1 101082
21:00−9w479559 0.1 1013126
6 march, sat
sat600:00−11w349516 0.0 101454
03:00−13wnw33959 0.0 101523
06:00−15nnw22960 0.0 101620
09:00−12nne11920 0.0 101767
12:00−9e21800 0.0 1017245
15:00−8ese117821 0.0 1015205
18:00−12sse227724 0.0 101521
21:00−13ssw238422 0.0 101620
7 march, sun
sun700:00−11sw3596100 0.1 1015117
03:00−11wsw339799 0.4 101563
06:00−14wsw349790 0.0 101436
09:00−11sw6119065 0.0 1011379
12:00−6sw8138288 0.0 1008887
15:00−4sw10168194 0.1 10041211
18:00−5sw91694100 1.4 9991134
21:00−4w81394100 3.6 999886
8 march, mon
mon800:00−10w498467 0.1 1000141
03:00−12sw4108533 0.1 1002160
06:00−13ssw511820 0.0 1001198
09:00−9ssw612890 0.0 998375
12:00−4sw71088100 0.3 9961081
15:00−7w91378100 1.7 9981396
18:00−8w61388100 0.1 1002725
21:00−10wnw7158896 0.2 1006692